WILDBLUE-1 1 29643U 06054A 21061.65954221 -.00000057 00000-0 00000-0 0 9996 2 29643 0.0134 129.7199 0001762 220.8248 296.3408 1.00271885 34410 AMC-18 1 29644U 06054B 21061.88051087 -.00000224 00000-0 00000-0 0 9996 2 29644 0.0569 292.9855 0002804 64.9737 36.8741 1.00270795 52183 ARIANE 5 R/B 1 29646U 06054D 21062.02253247 .00001625 00000-0 48724-3 0 9990 2 29646 2.9431 29.2734 7043135 175.5387 198.8092 2.58096140126308